Вернуться в каталог

FENGYUN 1C DEB

АктивенSSO
NORAD 36736·DEBRIS·🇨🇳 China

Запущен May 10, 1999 с Taiyuan Satellite Launch Center

Loading…

Ближайшие Пролёты (ближайшие 24 часа)

TLE

СвежийSource: Space-Track

Эпоха: Sep 14, 2026, 10:54 UTC

1 36736U 99025EBJ 26257.45465136  .00001840  00000-0  75781-3 0  9990
2 36736  98.7923 337.2107 0059032  60.5883 300.1172 14.27178447925462

Отслеживайте FENGYUN 1C DEB в реальном времени с AllMySat

Download on the App Store